Thurlow Lake Weather Center

Moon Phase Calendar



Thurlow Lake Water Level
Online Cameras

 


      

Current Conditions in Tallassee
2/22/2024 9:38:54 AM

63°F
Feels Like 62
Clouds
Humidity
60%
Pressure
30.03"
Wind
11.5 mph (SSW)
Dew Point
49°F
UV Index
4/10 (Moderate)
Visibility
6 mi

Hourly Forecast

Date & Time Thu, Feb 22
9:00 AM
Thu, Feb 22
10:00 AM
Thu, Feb 22
11:00 AM
Thu, Feb 22
12:00 PM
Thu, Feb 22
1:00 PM
Thu, Feb 22
2:00 PM
Thu, Feb 22
3:00 PM
Thu, Feb 22
4:00 PM
Thu, Feb 22
5:00 PM
Thu, Feb 22
6:00 PM
Thu, Feb 22
7:00 PM
Thu, Feb 22
8:00 PM
Thu, Feb 22
9:00 PM
Thu, Feb 22
10:00 PM
Thu, Feb 22
11:00 PM
Fri, Feb 23
12:00 AM
Fri, Feb 23
1:00 AM
Fri, Feb 23
2:00 AM
Fri, Feb 23
3:00 AM
Fri, Feb 23
4:00 AM
Fri, Feb 23
5:00 AM
Fri, Feb 23
6:00 AM
Fri, Feb 23
7:00 AM
Fri, Feb 23
8:00 AM
Fri, Feb 23
9:00 AM
Fri, Feb 23
10:00 AM
Fri, Feb 23
11:00 AM
Fri, Feb 23
12:00 PM
Fri, Feb 23
1:00 PM
Fri, Feb 23
2:00 PM
Fri, Feb 23
3:00 PM
Fri, Feb 23
4:00 PM
Fri, Feb 23
5:00 PM
Fri, Feb 23
6:00 PM
Fri, Feb 23
7:00 PM
Fri, Feb 23
8:00 PM
Fri, Feb 23
9:00 PM
Fri, Feb 23
10:00 PM
Fri, Feb 23
11:00 PM
Sat, Feb 24
12:00 AM
Sat, Feb 24
1:00 AM
Sat, Feb 24
2:00 AM
Sat, Feb 24
3:00 AM
Sat, Feb 24
4:00 AM
Sat, Feb 24
5:00 AM
Sat, Feb 24
6:00 AM
Sat, Feb 24
7:00 AM
Sat, Feb 24
8:00 AM
Condition
Clouds

Clouds

Clouds

Clouds

Clouds

Clouds

Clouds

Clouds

Clouds

Clouds

Clouds

Clouds

Clouds

Clouds

Clouds

Rain

Rain

Rain

Rain

Rain

Clouds

Clouds

Rain

Rain

Rain

Rain

Rain

Clouds

Clouds

Clouds

Clouds

Clouds

Clouds

Clear

Clear

Clouds

Clear

Clear

Clear

Clear

Clear

Clear

Clear

Clear

Clear

Clear

Clouds

Clouds
Temperature 62°F63°F64°F65°F67°F70°F72°F69°F67°F64°F62°F61°F61°F61°F62°F62°F61°F60°F60°F59°F59°F59°F59°F59°F59°F59°F60°F61°F65°F66°F66°F64°F61°F55°F54°F54°F53°F53°F52°F50°F48°F47°F46°F45°F45°F44°F46°F52°F
Feels Like 61°F62°F62°F64°F66°F69°F71°F69°F66°F63°F62°F61°F61°F61°F61°F61°F61°F60°F60°F60°F60°F60°F59°F59°F59°F59°F59°F60°F63°F64°F64°F62°F59°F53°F52°F52°F52°F51°F50°F47°F45°F44°F43°F43°F42°F42°F43°F50°F
Cloudiness 80%77%74%67%33%52%47%60%68%72%49%39%59%69%75%79%100%90%92%94%95%95%94%97%98%99%99%97%44%23%18%14%12%10%10%13%10%7%6%5%0%0%0%0%0%1%32%16%
Visibility 6 mi6 mi6 mi6 mi6 mi6 mi6 mi6 mi6 mi6 mi6 mi6 mi6 mi6 mi6 mi6 mi6 mi6 mi6 mi6 mi6 mi6 mi6 mi6 mi6 mi6 mi6 mi6 mi6 mi6 mi6 mi6 mi6 mi6 mi6 mi6 mi6 mi6 mi6 mi6 mi6 mi6 mi6 mi6 mi6 mi6 mi6 mi6 mi
Precipitation 0%0%0%0%0%0%0%0%0%0%9%8%8%9%18%29%74%90%100%100%80%78%75%81%92%100%100%80%6%3%1%0%0%0%0%0%0%0%0%0%0%0%0%0%0%0%0%0%
Humidity 62%60%58%56%52%50%52%57%63%71%78%84%84%81%76%78%84%90%93%95%95%94%91%91%91%89%84%75%58%43%42%45%51%61%66%67%69%69%72%78%84%86%87%87%87%86%80%67%
Dew Point 49°F49°F49°F49°F49°F50°F53°F53°F54°F54°F55°F56°F56°F55°F54°F55°F56°F57°F57°F58°F58°F57°F57°F56°F56°F56°F55°F53°F49°F43°F42°F42°F42°F42°F42°F43°F43°F43°F43°F43°F43°F42°F42°F41°F41°F40°F40°F41°F
Pressure 30.03"30.03"30.03"30"29.97"29.91"29.85"29.83"29.83"29.83"29.83"29.83"29.8"29.77"29.74"29.74"29.71"29.71"29.68"29.68"29.68"29.68"29.71"29.74"29.74"29.74"29.77"29.74"29.74"29.74"29.74"29.77"29.8"29.83"29.85"29.88"29.88"29.91"29.91"29.94"29.94"29.94"29.94"29.94"29.97"29.97"29.97"30"
Wind Speed 9.6 mph11.5 mph12.3 mph13.2 mph13.6 mph13.4 mph12.4 mph12.9 mph12.4 mph11.2 mph11.3 mph10.8 mph11.5 mph11.6 mph12.7 mph13.4 mph11.9 mph10.4 mph8.9 mph7.4 mph8.3 mph8.3 mph9.8 mph9.7 mph8.4 mph9.3 mph10.7 mph11 mph12 mph13.3 mph12.4 mph10.8 mph8.7 mph5.4 mph6.2 mph7.6 mph8.3 mph8.4 mph8 mph5.9 mph4.9 mph5.1 mph4.7 mph4.3 mph5.3 mph5 mph6.5 mph10.4 mph
Wind
Direction
191°
S
194°
SSW
198°
SSW
202°
SSW
211°
SSW
211°
SSW
211°
SSW
208°
SSW
205°
SSW
204°
SSW
204°
SSW
206°
SSW
204°
SSW
208°
SSW
212°
SSW
219°
SW
224°
SW
237°
WSW
240°
WSW
237°
WSW
244°
WSW
247°
WSW
263°
W
276°
W
284°
WNW
301°
WNW
323°
NW
325°
NW
319°
NW
326°
NW
325°
NW
323°
NW
319°
NW
302°
WNW
297°
WNW
298°
WNW
297°
WNW
303°
WNW
308°
NW
304°
NW
285°
WNW
280°
W
278°
W
269°
W
258°
WSW
251°
WSW
250°
WSW
277°
W

Daily Forecast

Date High Low Precip. Humidity
Today
Feb 22

Clouds
72 °F
45 °F
18%
58%
Friday
Feb 23

Rain
66 °F
52 °F
100%
84%
Saturday
Feb 24

Clear
63 °F
43 °F
0%
39%
Sunday
Feb 25

Clear
64 °F
37 °F
0%
40%
Monday
Feb 26

Clouds
70 °F
46 °F
0%
51%
Tuesday
Feb 27

Clouds
74 °F
57 °F
0%
53%
Wednesday
Feb 28

Clouds
76 °F
56 °F
0%
60%
Thursday
Feb 29

Rain
63 °F
46 °F
99%
92%
Friday
Mar 1

Clouds
58 °F
36 °F
0%
34%
Saturday
Mar 2

Clear
64 °F
36 °F
0%
33%
Sunday
Mar 3

Clear
66 °F
39 °F
0%
34%
Monday
Mar 4

Clouds
69 °F
45 °F
0%
47%
Tuesday
Mar 5

Clear
72 °F
48 °F
0%
35%
Wednesday
Mar 6

Clear
71 °F
49 °F
0%
33%
Thursday
Mar 7

Clear
72 °F
49 °F
0%
38%
Friday
Mar 8

Clouds
72 °F
52 °F
0%
49%

Temperature 8-14 Day Outlook



Precipitation 8-14 Day Outlook




Quick Links
Thurlow Lake News
Thurlow Lake Photos
Thurlow Lake Videos




About Us
Contact Us
Site Map
Search Site
Advertise With Us
   
Tallassee.USLakes.info
THE THURLOW LAKE WEBSITE

Copyright 2024, Lakes Online
Privacy    |    Legal